VE4GLS Weather Reports


time (UTC)temp
C
wind
direction
speed
KPH
gust
KPH
rain 1hr
cm
rain 24hr
cm
rain mn
cm
humidity
%
barometer
mb
20260504024313 15 331 14.5 32.2 0.00 0.00 0.00 46 990.3
20260504023315 15 305 22.5 32.2 0.00 0.00 0.00 45 989.9
20260504023235 16 311 22.5 32.2 0.00 0.00 0.00 46 989.9
20260504022314 15 319 22.5 27.4 0.00 0.00 0.00 49 989.5
20260504021734 15 321 20.9 33.8 0.00 0.00 0.00 57 989.5
20260504021313 15 309 20.9 24.1 0.00 0.00 0.00 60 989.4
20260504020313 15 272 20.9 25.7 0.00 0.00 0.00 59 989.5
20260504020235 15 268 19.3 20.9 0.00 0.00 0.00 59 989.5
20260504015313 16 250 35.4 37.0 0.00 0.00 0.00 56 989.5
20260504014735 16 250 40.2 45.1 0.00 0.00 0.00 56 989.5
20260504014313 16 248 33.8 29.0 0.00 0.00 0.00 55 989.4
20260504013313 17 285 20.9 46.7 0.00 0.00 0.00 47 989.8
20260504013235 17 280 14.5 20.9 0.00 0.00 0.00 47 989.7
20260504012313 17 253 20.9 22.5 0.00 0.00 0.00 46 989.3
20260504011735 17 242 14.5 19.3 0.00 0.00 0.00 46 989.4
20260504011313 17 250 22.5 20.9 0.00 0.00 0.00 46 989.5
20260504010314 18 240 16.1 16.1 0.00 0.00 0.00 45 989.6
20260504010234 18 243 24.1 24.1 0.00 0.00 0.00 45 989.7
20260504005313 18 261 25.7 24.1 0.00 0.00 0.00 45 989.8
20260504004735 18 247 27.4 32.2 0.00 0.00 0.00 44 990.0
20260504004313 18 250 25.7 29.0 0.00 0.00 0.00 44 990.1
20260504003313 18 250 25.7 29.0 0.00 0.00 0.00 43 990.0
20260504003235 18 252 27.4 27.4 0.00 0.00 0.00 43 990.0
20260504002315 18 251 24.1 27.4 0.00 0.00 0.00 42 990.1
20260504001735 19 252 29.0 32.2 0.00 0.00 0.00 41 990.2
20260504001314 19 253 29.0 29.0 0.00 0.00 0.00 41 990.3
20260504000314 19 247 35.4 33.8 0.00 0.00 0.00 41 990.6
20260504000234 19 248 35.4 35.4 0.00 0.00 0.00 41 990.6
20260503235314 19 248 37.0 41.8 0.00 0.00 0.00 40 990.7
20260503234734 19 251 35.4 41.8 0.00 0.00 0.00 40 990.8
20260503234314 19 247 41.8 40.2 0.00 0.00 0.00 40 990.9
20260503233314 19 254 41.8 41.8 0.00 0.00 0.00 41 991.1
20260503233234 19 251 38.6 46.7 0.00 0.00 0.00 41 991.0
20260503232314 19 257 40.2 41.8 0.00 0.00 0.00 41 991.3
20260503231736 20 252 33.8 45.1 0.00 0.00 0.00 40 991.6
20260503231313 20 258 27.4 35.4 0.00 0.00 0.00 39 991.7
20260503230313 20 263 33.8 40.2 0.00 0.00 0.00 37 992.0
20260503230235 20 262 29.0 33.8 0.00 0.00 0.00 37 992.0
20260503225313 20 259 29.0 38.6 0.00 0.00 0.00 37 992.1
20260503224735 20 255 32.2 37.0 0.00 0.00 0.00 37 991.9
20260503224314 20 262 19.3 38.6 0.00 0.00 0.00 37 992.5
20260503223314 20 275 37.0 38.6 0.00 0.00 0.00 36 992.6
20260503223234 20 277 45.1 64.4 0.00 0.00 0.00 35 992.7
20260503222315 21 263 33.8 38.6 0.00 0.00 0.00 27 992.6
20260503221735 21 251 48.3 53.1 0.00 0.00 0.00 27 992.3
20260503221314 21 253 51.5 51.5 0.00 0.00 0.00 27 992.2
20260503220314 21 247 53.1 57.9 0.00 0.00 0.00 26 992.2
20260503220234 21 249 46.7 57.9 0.00 0.00 0.00 26 992.2
20260503215314 22 251 46.7 48.3 0.00 0.00 0.00 26 992.5
20260503214734 22 253 56.3 61.2 0.00 0.00 0.00 27 992.4
20260503214314 22 248 61.2 69.2 0.00 0.00 0.00 27 992.5
20260503213314 21 237 61.2 64.4 0.00 0.00 0.00 28 992.5
20260503213236 21 249 49.9 61.2 0.00 0.00 0.00 28 992.6
20260503212314 21 249 46.7 48.3 0.00 0.00 0.00 29 992.9
20260503211735 21 243 46.7 57.9 0.00 0.00 0.00 30 992.9
20260503211313 21 236 46.7 53.1 0.00 0.00 0.00 31 992.9
20260503210313 21 241 35.4 40.2 0.00 0.00 0.00 30 993.1
20260503210235 21 242 45.1 45.1 0.00 0.00 0.00 30 993.1
20260503205313 22 223 45.1 48.3 0.00 0.00 0.00 31 993.4
20260503204736 22 251 38.6 56.3 0.00 0.00 0.00 30 993.6
20260503204315 22 240 40.2 46.7 0.00 0.00 0.00 29 993.6
20260503203314 23 240 38.6 41.8 0.00 0.00 0.00 28 994.0
20260503203234 23 235 40.2 49.9 0.00 0.00 0.00 28 994.1
20260503202314 22 261 40.2 53.1 0.00 0.00 0.00 28 994.4
20260503201734 22 251 38.6 48.3 0.00 0.00 0.00 28 994.8
20260503201314 22 242 38.6 49.9 0.00 0.00 0.00 30 995.0
20260503200314 22 235 32.2 41.8 0.00 0.00 0.00 31 995.4
20260503200234 22 238 35.4 37.0 0.00 0.00 0.00 30 995.5
20260503195314 22 234 37.0 48.3 0.00 0.00 0.00 32 995.6
20260503194735 22 230 37.0 46.7 0.00 0.00 0.00 32 996.0
20260503194314 22 228 37.0 41.8 0.00 0.00 0.00 31 996.2
20260503193314 21 221 25.7 37.0 0.00 0.00 0.00 34 996.5
20260503193234 21 230 29.0 35.4 0.00 0.00 0.00 33 996.5
20260503192314 21 234 29.0 38.6 0.00 0.00 0.00 34 996.8
20260503191738 21 247 33.8 41.8 0.00 0.00 0.00 33 997.1
20260503191314 21 248 38.6 53.1 0.00 0.00 0.00 33 997.2
20260503190313 20 232 46.7 57.9 0.00 0.00 0.00 33 997.5
20260503190235 20 243 45.1 53.1 0.00 0.00 0.00 34 997.5
20260503185314 20 239 37.0 46.7 0.00 0.00 0.00 34 997.7
20260503184735 20 245 38.6 37.0 0.00 0.00 0.00 33 997.9
20260503184315 20 236 33.8 40.2 0.00 0.00 0.00 34 998.0
20260503183313 20 232 35.4 41.8 0.00 0.00 0.00 34 998.3
20260503183235 20 230 33.8 38.6 0.00 0.00 0.00 34 998.3
20260503182313 21 235 40.2 40.2 0.00 0.00 0.00 33 998.5
20260503181736 21 225 24.1 29.0 0.00 0.00 0.00 33 998.7
20260503181313 21 243 45.1 49.9 0.00 0.00 0.00 34 998.9
20260503180315 21 224 29.0 41.8 0.00 0.00 0.00 34 999.1
20260503180235 21 233 27.4 41.8 0.00 0.00 0.00 33 999.2
20260503175314 20 235 27.4 32.2 0.00 0.00 0.00 34 999.4
20260503174734 21 245 32.2 40.2 0.00 0.00 0.00 34 999.6
20260503174314 21 236 37.0 45.1 0.00 0.00 0.00 35 999.7
20260503173313 20 240 29.0 32.2 0.00 0.00 0.00 34 1000.0
20260503173235 20 240 32.2 35.4 0.00 0.00 0.00 34 1000.1
20260503172314 20 246 29.0 37.0 0.00 0.00 0.00 33 1000.5
20260503171735 20 225 24.1 22.5 0.00 0.00 0.00 33 1000.8
20260503171315 20 237 24.1 37.0 0.00 0.00 0.00 33 1000.8
20260503170313 19 237 25.7 40.2 0.00 0.00 0.00 34 1001.3
20260503170235 19 244 22.5 24.1 0.00 0.00 0.00 33 1001.3
20260503150313 15 247 25.7 33.8 0.00 0.00 0.00 43 1003.7
20260503150235 15 246 27.4 29.0 0.00 0.00 0.00 43 1003.7
20260503140313 12 244 24.1 29.0 0.00 0.00 0.00 52 1005.1
20260503140235 12 240 22.5 27.4 0.00 0.00 0.00 52 1005.1
20260503131314 6 243 11.3 16.1 0.00 0.00 0.00 66 1005.7
20260503130314 5 243 14.5 20.9 0.00 0.00 0.00 67 1005.7
20260503130234 5 237 16.1 19.3 0.00 0.00 0.00 68 1005.8
20260503110313 0 273 4.8 4.8 0.00 0.00 0.00 74 1006.3
20260503110236 0 273 4.8 4.8 0.00 0.00 0.00 75 1006.3
20260503100236 0 292 8.0 8.0 0.00 0.00 0.00 76 1006.8
20260503090313 -1 274 9.7 12.9 0.00 0.00 0.00 75 1006.7
20260503090236 0 276 9.7 11.3 0.00 0.00 0.00 75 1006.7
20260503081313 0 278 9.7 11.3 0.00 0.00 0.00 76 1006.6
20260503080315 0 275 9.7 12.9 0.00 0.00 0.00 76 1006.7
20260503080235 0 280 11.3 14.5 0.00 0.00 0.00 76 1006.7
20260503072314 0 281 9.7 11.3 0.00 0.00 0.00 74 1006.9
20260503071734 1 274 8.0 12.9 0.00 0.00 0.00 73 1006.8
20260503071314 1 273 9.7 11.3 0.00 0.00 0.00 73 1006.8
20260503070314 1 276 12.9 14.5 0.00 0.00 0.00 67 1006.7
20260503070236 2 278 11.3 14.5 0.00 0.00 0.00 67 1006.7
20260503060314 4 26 8.0 11.3 0.00 0.00 0.00 68 1006.6
20260503060236 3 30 9.7 9.7 0.00 0.00 0.00 69 1006.6
20260503054735 3 346 14.5 16.1 0.00 0.00 0.00 67 1006.9
20260503054314 3 336 12.9 20.9 0.00 0.00 0.00 67 1006.9
20260503053314 4 338 11.3 14.5 0.00 0.00 0.00 66 1006.8
20260503053234 4 333 12.9 14.5 0.00 0.00 0.00 66 1006.8
20260503052315 4 335 12.9 20.9 0.00 0.00 0.00 65 1006.7
20260503051735 5 331 14.5 20.9 0.00 0.00 0.00 64 1006.6
20260503051314 5 338 12.9 22.5 0.00 0.00 0.00 63 1006.7
20260503050314 5 337 11.3 9.7 0.00 0.00 0.00 62 1006.7
20260503050234 5 339 11.3 9.7 0.00 0.00 0.00 62 1006.7
20260503045314 6 311 20.9 27.4 0.00 0.00 0.00 62 1006.6
20260503044734 6 308 12.9 19.3 0.00 0.00 0.00 61 1006.5
20260503044314 6 320 14.5 22.5 0.00 0.00 0.00 61 1006.5
20260503043314 6 325 16.1 24.1 0.00 0.00 0.00 60 1006.5
20260503043236 6 316 16.1 22.5 0.00 0.00 0.00 60 1006.5
20260503042315 7 317 16.1 22.5 0.00 0.00 0.00 60 1006.4
20260503041734 7 306 16.1 20.9 0.00 0.00 0.00 61 1006.5
20260503041314 7 316 16.1 24.1 0.00 0.00 0.00 61 1006.5
20260503040314 7 307 14.5 20.9 0.00 0.00 0.00 61 1006.4
20260503040234 7 312 14.5 16.1 0.00 0.00 0.00 61 1006.4
20260503035314 7 312 12.9 20.9 0.00 0.00 0.00 62 1006.4
20260503034734 7 308 14.5 16.1 0.00 0.00 0.00 61 1006.4
20260503034313 7 313 11.3 14.5 0.00 0.00 0.00 61 1006.5
20260503033313 7 319 12.9 14.5 0.00 0.00 0.00 59 1006.4
20260503033235 7 320 14.5 19.3 0.00 0.00 0.00 59 1006.4
20260503032314 8 321 9.7 12.9 0.00 0.00 0.00 58 1006.4
20260503031734 8 332 11.3 19.3 0.00 0.00 0.00 58 1006.3
20260503031314 8 338 12.9 19.3 0.00 0.00 0.00 57 1006.3
20260503030314 9 322 19.3 24.1 0.00 0.00 0.00 56 1006.2
20260503030234 9 330 14.5 22.5 0.00 0.00 0.00 56 1006.2
20260503025314 10 325 16.1 20.9 0.00 0.00 0.00 56 1006.2
20260503024734 10 320 20.9 32.2 0.00 0.00 0.00 56 1006.1